Weather History for CZFS - November, 2012

Change the Weather History Date:

Friday, November 2, 2012

  Actual Average Record
Temperature  
Mean Temperature 4 °F -  
Max Temperature 10 °F - - ()
Min Temperature -2 °F - - ()
Degree Days  
Heating Degree Days 61    
Moisture  
Dew Point 3 °F    
Average Humidity 82    
Maximum Humidity 88    
Minimum Humidity 60    
Precipitation  
Precipitation 0.00 in - - ()
Sea Level Pressure  
Sea Level Pressure 30.25 in    
Wind  
Wind Speed 5 mph ()    
Max Wind Speed 10 mph    
Max Gust Speed -    
T = Trace of Precipitation, MM = Missing Value Source: Averaged Metar Reports

Daily Weather History Graph

Daily Weather History Graph

Search for Another Location

Airport or City:

Trip Planner

Search our weather history database for the weather conditions in past years. The results will help you decide how hot, cold, wet, or windy it might be!

Date:

Astronomy

Nov. 02, 2012 Rise Set
Actual Time 9:39 AM MDT 5:56 PM MDT
Civil Twilight 8:51 AM MDT 6:44 PM MDT
Nautical Twilight 7:58 AM MDT 7:37 PM MDT
Astronomical Twilight 7:07 AM MDT 8:28 PM MDT
Moon 8:04 PM MDT (11/2) 1:48 PM MDT (11/2)
Length of Visible Light 9h 53m
Length of Day
8h 16m
Waning Gibbous, 87% of the Moon is Illuminated
Nov 2
Waning Gibbous
Nov 6
Last Quarter
Nov 13
New
Nov 20
First Quarter
Nov 28
Full

Hourly Weather History & Observations

Time (MDT) Temp. Windchill Dew Point Humidity Pressure Visibility Wind Dir Wind Speed Gust Speed Precip Events Conditions
12:00 AM 9 °F - 6 °F 79% 30.26 in - NW 6.9 mph - -  
12:00 AM 9.1 °F -1.9 °F 5.5 °F 85% 30.26 in - NW 6.9 mph - N/A   Unknown
1:00 AM 8.4 °F -2.8 °F 5.0 °F 86% 30.27 in - NW 6.9 mph - N/A   Unknown
2:00 AM 7.9 °F -3.5 °F 4.5 °F 86% 30.27 in - NW 6.9 mph - N/A   Unknown
3:00 AM 7.2 °F -3.0 °F 3.7 °F 86% 30.29 in - WNW 5.8 mph - N/A   Unknown
4:00 AM 6.4 °F -2.4 °F 2.8 °F 85% 30.29 in - NW 4.6 mph - N/A   Unknown
5:00 AM 6.3 °F -2.6 °F 2.5 °F 84% 30.30 in - West 4.6 mph - N/A   Unknown
6:00 AM 6 °F - 2 °F 77% 30.29 in - WNW 2.3 mph - -  
6:00 AM 6.1 °F - 2.3 °F 84% 30.29 in - WNW 2.3 mph - N/A   Unknown
7:00 AM 5.5 °F -1.5 °F 1.9 °F 85% 30.29 in - West 3.5 mph - N/A   Unknown
8:00 AM 3.9 °F - 1.0 °F 88% 30.29 in - WNW 1.2 mph - N/A   Unknown
9:00 AM 0.3 °F - -2.4 °F 88% 30.29 in - West 1.2 mph - N/A   Unknown
10:00 AM -1.1 °F - -4.0 °F 88% 30.30 in - WNW 1.2 mph - N/A   Unknown
11:00 AM 1.8 °F - -2.9 °F 81% 30.30 in - Calm Calm - N/A   Unknown
12:00 PM 6 °F - -1 °F 60% 30.29 in - SSE 1.2 mph - -  
12:00 PM 5.7 °F - -1.3 °F 73% 30.29 in - SSE 1.2 mph - N/A   Unknown
1:00 PM 7.3 °F - -0.2 °F 71% 30.29 in - SE 2.3 mph - N/A   Unknown
2:00 PM 8.4 °F 1.8 °F 1.2 °F 73% 30.27 in - South 3.5 mph - N/A   Unknown
3:00 PM 9.7 °F 1.4 °F 3.6 °F 76% 30.26 in - SSE 4.6 mph - N/A   Unknown
4:00 PM 10.2 °F -0.6 °F 4.8 °F 79% 30.23 in - SSE 6.9 mph - N/A   Unknown
5:00 PM 10.4 °F -0.4 °F 4.8 °F 78% 30.22 in - SE 6.9 mph - N/A   Unknown
6:00 PM 10 °F - 6 °F 76% 30.19 in - SE 6.9 mph - -  
6:00 PM 9.9 °F -1.1 °F 5.9 °F 84% 30.19 in - SE 6.9 mph - N/A   Unknown
7:00 PM 8.6 °F -1.3 °F 5.4 °F 87% 30.17 in - SE 5.8 mph - N/A   Unknown
8:00 PM 8.1 °F -4.3 °F 5.0 °F 87% 30.17 in - SE 8.1 mph - N/A   Unknown
9:00 PM 8.1 °F -5.3 °F 5.0 °F 87% 30.16 in - SE 9.2 mph - N/A   Unknown
10:00 PM 8.8 °F -4.4 °F 5.4 °F 86% 30.14 in - SE 9.2 mph - N/A   Unknown
11:00 PM 9.1 °F -4.9 °F 5.9 °F 87% 30.10 in - SE 10.4 mph - N/A   Unknown